This is the latest recevied weather packets stored in our database for station/object DG2GGP-11. If no packets are shown the sender has not sent any weather packets the latest 10 day(s).
| Time | Temp. | Humidity | Pressure | Rain* | Wind** | Luminosity | Snow |
|---|---|---|---|---|---|---|---|
| 1788525002 | 30° C | 38% | 1019.6 hPa | 0 mm | - | 45 W/m² | - |
| 1788524402 | 29.44° C | 38% | 1019.6 hPa | 0 mm | - | 45 W/m² | - |
| 1788523802 | 30° C | 37% | 1019.7 hPa | 0 mm | - | 45 W/m² | - |
| 1788523202 | 29.44° C | 38% | 1019.8 hPa | 0 mm | - | 45 W/m² | - |
| 1788522602 | 28.89° C | 38% | 1019.8 hPa | 0 mm | - | 45 W/m² | - |
| 1788522002 | 28.89° C | 38% | 1019.9 hPa | 0 mm | - | 45 W/m² | - |
| 1788521404 | 28.89° C | 39% | 1020.1 hPa | 0 mm | - | 44 W/m² | - |
| 1788520802 | 28.89° C | 40% | 1020.1 hPa | 0 mm | - | 44 W/m² | - |
| 1788520202 | 28.33° C | 40% | 1020.3 hPa | 0 mm | - | 44 W/m² | - |
| 1788519602 | 28.33° C | 41% | 1020.3 hPa | 0 mm | - | 43 W/m² | - |
| 1788519002 | 28.33° C | 41% | 1020.5 hPa | 0 mm | - | 44 W/m² | - |
| 1788518402 | 28.33° C | 41% | 1020.8 hPa | 0 mm | - | 44 W/m² | - |
| 1788517802 | 28.33° C | 41% | 1020.8 hPa | 0 mm | - | 44 W/m² | - |
| 1788517202 | 28.33° C | 42% | 1020.8 hPa | 0 mm | - | 43 W/m² | - |
| 1788516602 | 27.78° C | 43% | 1021 hPa | 0 mm | - | 43 W/m² | - |
| 1788516002 | 27.78° C | 43% | 1021.1 hPa | 0 mm | - | 43 W/m² | - |
| 1788515402 | 27.22° C | 48% | 1021.1 hPa | 0 mm | - | 44 W/m² | - |
| 1788514802 | 27.22° C | 47% | 1021.3 hPa | 0 mm | - | 44 W/m² | - |
| 1788514202 | 26.11° C | 48% | 1021.5 hPa | 0 mm | - | 44 W/m² | - |
| 1788513602 | 26.11° C | 50% | 1021.5 hPa | 0 mm | - | 44 W/m² | - |
| 1788513002 | 25.56° C | 52% | 1021.6 hPa | 0 mm | - | 43 W/m² | - |
| 1788512402 | 25° C | 52% | 1021.7 hPa | 0 mm | - | 42 W/m² | - |
| 1788511802 | 24.44° C | 53% | 1021.7 hPa | 0 mm | - | 42 W/m² | - |
| 1788511202 | 24.44° C | 53% | 1021.7 hPa | 0 mm | - | 41 W/m² | - |
| 1788510602 | 23.89° C | 54% | 1021.8 hPa | 0 mm | - | 41 W/m² | - |
* Rain latest hour (hover to see other rain measurements)
** Current wind speed in m/s (hover to see current wind gust speed)